GFSSW_prec_cloud_174.txt.gz
Cloud_Cover
0 0 0 0 0 0 0 0 0 0 0 1 0 0 4 0 1 0 0 0 5 5 4 0 0 0 0 4 53 92 67 50 4 3 1 3 40 13 16 95 99 74 16 70 93
0 0 0 0 0 0 0 0 0 0 0 0 0 0 0 4 0 0 3 4 5 5 5 2 0 0 0 87 100 97 90 5 5 4 8 17 3 0 0 0 74 99 46 91 96
0 0 0 0 0 0 0 0 0 0 0 0 0 0 0 10 0 0 5 40 5 0 0 0 1 0 0 97 100 97 23 0 3 5 0 0 3 93 31 44 17 100 56 99 89
0 0 0 0 0 0 0 0 0 0 0 0 0 0 0 0 0 0 3 5 5 0 2 3 0 3 88 73 11 45 0 0 0 0 0 0 4 60 98 93 5 92 73 80 94
0 0 0 0 0 0 0 0 0 0 0 0 0 0 0 0 0 0 0 2 5 0 0 0 0 4 97 20 47 5 0 0 0 0 0 0 0 0 0 15 15 82 99 90 41
0 0 0 0 0 0 0 0 0 0 0 0 0 36 0 0 0 0 0 0 4 0 0 0 0 0 4 79 100 90 0 0 0 0 0 0 0 0 0 6 41 87 100 98 3
0 0 0 0 0 0 0 0 0 0 0 0 0 0 0 0 0 0 0 0 0 0 0 0 0 0 15 11 100 100 5 0 0 0 0 0 0 0 0 3 19 32 89 100 100
0 0 0 0 0 0 0 0 0 0 0 0 0 0 0 0 0 0 0 0 0 0 0 0 0 0 10 94 96 44 83 57 0 5 0 10 0 0 0 0 13 52 62 100 100
0 0 0 0 0 0 0 0 0 0 0 0 0 0 0 0 0 0 0 0 0 1 2 2 0 0 100 51 100 100 100 100 49 55 7 2 0 0 0 0 0 14 19 23 24
0 0 0 0 0 0 0 0 0 0 0 0 0 0 0 0 0 0 0 0 0 2 5 0 0 0 2 100 100 100 100 93 100 2 10 5 0 0 0 0 0 0 0 11 5
0 0 0 0 0 0 0 0 0 0 0 0 0 0 0 0 0 0 0 0 0 0 0 0 0 0 97 92 100 90 100 100 100 0 72 59 0 0 0 2 3 6 16 89 6
0 0 0 0 0 0 0 0 0 0 0 0 0 0 0 0 0 0 0 0 0 0 0 0 0 0 100 100 90 100 89 93 90 0 18 8 4 0 0 5 62 100 100 100 57
0 0 0 0 0 0 0 0 0 0 0 0 0 0 0 0 0 0 0 0 0 0 0 0 0 2 100 100 86 100 100 100 1 0 12 65 33 0 0 5 63 74 67 42 71
0 0 0 0 0 0 0 0 0 0 0 0 0 0 0 0 0 0 0 0 0 0 0 0 0 3 100 100 78 33 53 100 28 1 98 5 100 3 1 0 23 48 100 100 18
0 0 0 0 0 0 0 0 0 0 0 0 0 0 0 0 0 0 0 0 0 0 0 0 2 5 83 100 24 94 100 7 1 4 85 91 100 100 4 0 2 9 96 86 30
0 0 0 0 0 0 0 0 0 0 0 0 0 0 0 0 0 0 0 0 0 0 0 0 1 32 5 33 2 95 59 91 4 1 6 95 88 100 19 0 1 0 0 0 0
0 0 0 0 0 0 0 0 0 0 0 0 0 0 0 0 0 0 0 0 0 0 0 0 3 4 95 8 1 94 97 13 3 0 15 78 54 91 90 2 0 0 0 0 0
0 0 0 0 0 0 0 0 0 0 0 0 0 0 0 0 0 0 0 0 0 0 0 0 0 4 6 17 1 19 70 44 5 5 58 85 84 5 33 2 0 0 0 0 0
12 0 0 0 0 0 0 0 0 0 0 0 0 0 0 0 0 0 0 0 0 0 0 0 0 0 0 4 5 2 6 5 51 52 100 85 1 80 73 2 0 4 0 0 0
0 0 0 0 0 0 0 0 0 0 0 0 0 0 0 0 0 0 0 0 0 0 0 0 0 0 0 3 0 1 3 0 4 5 92 99 87 1 1 0 0 0 4 0 0
0 3 0 6 0 0 0 0 0 0 0 0 0 0 0 0 0 0 0 0 0 0 0 0 0 0 0 0 0 0 1 1 0 19 7 100 83 12 0 0 0 0 0 0 0
5 45 94 100 12 0 0 0 0 0 0 0 0 0 5 0 0 0 0 0 0 0 0 0 0 0 0 0 0 0 0 0 0 0 6 100 100 100 33 1 0 0 0 0 0
5 17 59 100 100 13 5 0 0 0 0 0 0 0 0 0 4 0 0 0 0 0 0 0 0 3 5 2 0 0 0 0 0 0 6 100 60 13 14 5 0 0 0 0 0
7 76 24 100 60 100 39 0 0 0 0 0 0 0 0 0 0 4 0 0 0 0 0 0 0 0 0 0 0 0 0 0 0 0 6 20 100 100 100 5 4 0 0 0 0
84 93 100 99 100 100 100 100 1 0 0 0 0 0 0 0 0 1 4 0 0 0 0 0 0 0 0 4 3 0 0 0 0 0 1 4 100 96 65 9 5 4 5 0 0
99 98 100 100 98 38 100 35 13 1 0 0 0 0 0 0 0 8 100 6 0 0 0 0 0 0 0 0 5 0 0 0 0 0 5 3 99 100 15 65 5 5 5 0 0
88 90 100 100 100 86 100 94 85 47 0 0 0 0 0 26 71 54 79 99 7 22 0 0 0 0 0 0 0 2 0 0 0 0 0 2 6 90 98 80 6 0 3 1 0

GFSSW_prec_cloud_180.txt.gz
Cloud_Cover
0 0 0 0 0 0 0 0 0 0 5 0 0 0 2 0 0 0 0 0 4 0 1 5 14 80 99 96 100 21 33 5 38 20 4 3 38 100 75 99 59 97 60 97 82
0 0 0 0 0 0 0 0 0 0 0 5 0 0 0 1 0 0 0 2 5 0 94 43 48 96 88 94 17 19 45 5 0 35 5 5 0 1 24 3 33 6 46 6 11
0 0 0 0 0 0 0 0 0 0 0 0 0 0 0 2 0 0 0 4 2 0 31 54 18 86 74 8 5 5 9 0 0 0 0 0 0 5 0 14 12 12 47 5 5
0 0 0 0 0 0 0 0 0 0 0 0 0 0 0 0 0 0 0 1 2 2 4 64 5 3 99 17 52 14 34 2 0 0 0 0 0 0 0 0 5 5 2 5 5
0 0 0 0 0 0 0 0 0 0 0 0 0 0 0 0 0 0 0 2 0 0 5 20 5 30 5 44 5 89 0 0 0 0 0 0 0 0 0 4 0 0 0 2 0
0 0 0 0 0 0 0 0 0 0 0 0 0 0 0 0 0 0 0 1 0 0 4 5 5 79 2 74 16 5 0 0 0 0 0 0 0 0 46 0 0 0 0 0 0
0 0 0 0 0 0 0 0 0 0 0 0 0 0 0 3 0 0 0 3 0 0 0 5 5 3 0 3 7 5 0 0 0 0 0 0 0 0 6 58 33 13 23 10 0
0 0 0 0 0 0 0 0 0 0 0 0 0 0 0 0 0 0 0 0 2 0 0 5 5 0 0 17 62 1 0 0 0 3 0 0 55 0 0 80 100 100 100 100 13
0 0 0 0 0 0 0 0 0 0 0 0 0 0 0 0 0 0 0 0 2 0 0 2 2 0 0 0 29 7 4 6 3 0 0 0 11 1 0 0 28 100 94 100 94
0 0 0 0 0 0 0 0 0 0 0 0 0 0 0 0 0 0 0 0 0 0 4 0 0 0 1 11 4 85 46 66 4 4 2 0 0 0 0 0 0 2 15 21 44
0 0 0 0 0 0 0 0 0 0 0 0 0 0 0 0 0 0 0 0 0 0 0 0 0 0 16 100 9 63 92 99 29 66 90 0 0 0 0 0 0 0 0 0 0
0 0 0 0 0 0 0 0 0 0 0 0 0 0 0 0 0 0 0 0 0 0 0 0 0 0 100 82 64 17 42 2 74 94 0 0 2 4 0 0 0 0 0 0 0
0 0 0 0 0 0 0 0 0 0 0 0 0 0 0 0 0 0 0 0 0 0 0 0 0 2 50 92 100 24 28 5 42 26 2 0 0 0 0 0 0 0 0 0 0
0 0 0 0 0 0 0 0 0 0 0 0 0 0 0 0 0 0 0 0 0 0 0 0 0 2 5 40 91 54 22 4 5 0 2 1 0 0 2 0 0 0 0 0 0
0 0 0 0 0 0 0 0 0 0 0 0 0 0 0 0 0 0 0 0 0 0 0 0 3 9 13 5 100 15 92 30 3 6 5 5 1 5 4 1 4 0 0 0 0
0 0 0 8 0 0 0 0 0 0 0 0 0 0 0 0 0 0 0 0 0 0 0 0 0 24 100 12 100 71 84 38 5 59 4 2 2 5 5 1 5 0 0 0 0
0 0 0 0 0 0 0 0 0 0 0 0 0 0 0 0 0 0 0 0 0 0 0 0 0 0 1 5 48 76 93 63 13 5 12 2 2 2 0 1 0 0 0 0 0
0 0 0 0 0 0 0 0 0 0 0 0 0 0 0 0 0 0 0 0 0 0 0 0 0 0 0 0 5 33 46 94 4 0 13 5 3 2 0 5 0 0 0 0 0
0 0 0 0 0 0 0 0 0 0 0 0 0 0 0 0 0 0 0 0 0 0 0 0 0 0 0 1 4 8 25 99 1 5 27 89 12 4 0 0 0 0 0 0 0
39 8 0 0 0 0 0 0 0 0 0 0 0 0 0 0 0 0 0 0 0 0 0 0 0 0 0 0 3 24 14 71 0 18 2 5 12 58 5 0 0 0 0 0 0
0 0 0 0 0 0 0 0 0 0 0 0 0 0 0 0 0 0 0 0 0 0 0 0 0 0 0 0 0 0 5 4 0 3 2 72 58 5 5 1 0 0 0 0 0
0 2 0 0 0 2 0 0 0 0 0 0 0 0 0 0 0 0 0 0 0 0 0 0 0 0 0 0 0 0 0 5 2 0 0 5 3 7 21 5 0 0 0 0 0
14 0 0 2 5 5 3 3 1 0 0 0 0 0 0 0 0 0 0 0 0 0 0 0 0 0 0 0 0 1 0 2 0 0 0 2 16 69 7 7 2 0 0 0 0
2 9 1 3 6 5 77 4 0 0 0 0 0 0 0 0 0 0 0 0 0 0 0 0 0 0 0 0 0 0 0 0 0 0 0 0 42 21 7 1 4 0 0 0 0
16 81 79 52 76 5 5 5 21 3 0 0 0 0 0 0 0 0 0 0 0 0 0 0 0 0 0 0 0 0 0 0 0 0 0 0 7 5 0 5 0 0 0 0 0
19 94 73 100 5 80 6 58 82 84 2 0 0 0 0 0 0 0 0 0 0 0 0 0 0 0 0 0 0 0 0 0 0 0 0 0 0 5 4 23 42 5 0 0 0
3 11 32 20 84 86 100 66 100 21 7 5 0 0 0 0 0 0 0 0 0 0 0 0 0 0 0 0 0 0 0 0 0 0 0 0 0 0 6 27 5 5 4 5 5

GFSSW_prec_cloud_186.txt.gz
Cloud_Cover
0 0 0 0 0 0 0 0 4 5 5 0 3 3 4 5 5 5 5 5 5 3 3 51 88 50 5 5 4 0 0 2 0 5 5 2 5 36 17 71 60 100 100 100 100
0 0 0 0 0 0 0 0 0 3 5 5 0 5 0 7 5 5 5 5 5 5 36 26 16 21 25 5 3 0 0 0 0 0 1 0 5 5 86 99 98 100 100 100 100
0 0 0 0 0 0 0 0 0 0 1 5 5 0 4 0 5 0 5 5 5 5 5 5 4 5 7 81 3 0 0 0 0 0 0 0 4 82 46 99 100 100 100 100 100
0 0 0 0 0 0 0 0 0 0 0 0 4 2 0 0 0 0 0 5 5 5 5 5 5 5 5 7 23 11 0 0 0 0 0 0 0 0 24 91 100 100 100 100 100
0 0 0 0 0 0 0 0 0 0 0 0 0 0 0 0 0 0 0 5 5 5 5 3 5 5 5 0 2 0 0 0 0 0 0 0 0 0 59 22 25 100 100 64 100
0 0 0 0 0 0 0 0 0 0 0 0 0 0 0 0 4 0 0 1 5 4 6 3 31 5 4 0 0 1 0 0 0 0 0 0 0 0 97 61 100 100 100 100 100
0 0 0 0 0 0 0 0 0 0 0 0 0 0 0 57 33 0 0 2 3 2 5 0 61 9 0 0 0 0 0 0 0 0 0 0 0 14 67 28 100 95 85 85 40
0 0 0 0 0 0 0 0 0 0 0 0 0 0 0 9 35 0 0 0 0 5 5 3 5 21 4 0 0 0 0 0 0 0 0 0 0 26 8 0 7 1 2 0 0
0 0 0 0 0 0 0 0 0 0 0 0 0 0 0 0 14 0 0 0 0 5 5 0 1 4 1 0 0 0 0 0 0 0 0 0 0 0 0 0 0 0 0 0 0
0 0 0 0 0 0 0 0 0 0 0 0 0 0 0 0 0 0 0 0 1 5 2 0 0 0 3 0 0 0 1 0 0 0 0 0 0 4 0 0 0 0 0 0 0
0 0 0 0 0 0 0 0 0 0 0 0 0 0 0 0 0 0 0 0 0 0 0 0 0 0 0 0 0 0 0 3 2 0 1 0 0 16 0 0 0 0 0 0 0
0 0 0 0 0 0 0 0 0 0 0 0 0 0 0 0 0 0 0 0 0 0 0 0 0 0 0 0 0 0 0 2 18 0 0 0 0 0 0 0 0 0 0 0 0
0 0 0 0 0 0 0 0 0 0 0 0 0 0 0 0 0 0 0 0 0 0 0 0 0 0 0 0 1 23 5 1 41 7 0 1 0 0 0 0 0 0 0 0 0
0 0 0 0 0 0 0 0 0 0 0 0 0 0 0 0 0 0 0 0 0 0 0 0 0 0 0 0 9 82 96 25 7 3 4 3 0 0 0 0 0 0 0 0 0
0 0 0 0 0 0 0 0 0 0 0 0 0 0 0 0 0 0 0 0 0 0 0 0 0 0 0 0 76 100 32 90 18 2 4 0 0 0 0 0 0 0 0 0 0
0 0 0 0 0 0 0 0 0 0 0 0 0 0 0 0 0 0 0 0 0 0 0 0 0 0 0 0 84 100 80 89 5 5 2 2 0 2 0 0 0 0 0 0 0
0 0 0 2 0 0 0 0 0 0 0 0 0 0 0 0 0 0 0 0 0 0 0 0 0 0 0 0 99 93 100 22 4 0 5 0 0 0 0 0 0 0 0 0 0
0 1 0 0 0 0 0 0 0 0 0 0 0 0 0 0 0 0 0 0 0 0 0 0 0 0 0 44 42 96 77 7 0 0 1 0 0 3 1 0 0 0 0 0 0
0 0 0 0 0 0 0 0 0 0 0 0 0 0 0 0 0 0 0 0 0 0 0 0 0 0 0 0 12 6 39 2 0 0 0 0 0 0 0 0 0 0 0 0 0
0 0 0 0 0 0 0 0 0 0 0 0 0 0 0 0 0 0 0 0 0 0 0 0 0 0 0 5 56 36 97 0 0 1 0 0 0 0 4 0 0 0 0 0 0
0 0 0 0 0 0 0 0 0 0 0 0 0 0 0 0 0 0 0 0 0 0 0 0 0 0 0 0 3 4 10 0 1 0 14 0 0 5 94 0 0 0 0 0 0
0 0 0 0 0 0 0 0 0 0 0 0 0 0 0 0 0 0 0 0 0 0 0 0 0 0 0 0 1 100 96 18 18 6 30 5 0 5 100 5 4 0 0 0 0
0 4 2 0 0 3 3 0 0 0 0 0 0 0 0 0 0 0 0 0 0 0 0 0 0 0 0 0 0 4 54 5 1 5 43 10 77 5 99 26 5 0 0 0 0
3 3 4 3 5 5 35 3 2 0 0 0 0 0 0 0 0 0 0 0 0 0 0 0 0 0 0 0 0 0 0 0 0 0 2 5 8 5 94 99 20 5 3 3 0
5 14 44 26 5 5 34 5 5 4 2 0 0 0 0 0 0 0 0 0 0 0 0 0 0 0 0 0 0 0 0 0 0 0 0 0 4 5 11 94 5 23 6 5 0
99 5 5 9 5 6 5 5 12 66 45 3 3 3 0 0 0 0 0 0 0 0 0 0 0 0 0 0 0 0 0 0 0 0 0 0 2 0 3 5 3 0 0 0 0
60 6 6 5 5 45 27 91 71 100 12 6 30 99 6 0 0 0 0 0 0 0 0 0 0 0 0 0 0 0 0 0 0 0 0 0 0 0 0 1 4 4 0 0 0

GFSSW_prec_cloud_192.txt.gz
Cloud_Cover
0 0 0 0 0 0 0 0 0 0 0 5 5 24 86 5 5 5 3 3 9 38 81 5 4 5 5 5 3 0 4 80 50 77 12 0 89 71 19 36 37 34 56 100 80
0 0 0 0 0 0 0 0 0 0 0 0 3 58 78 22 5 5 3 3 5 5 15 2 5 5 41 8 0 0 2 2 3 17 0 0 11 24 5 15 44 77 55 84 57
0 0 0 0 0 0 0 0 0 0 0 0 0 5 53 51 10 5 5 5 5 5 5 2 39 35 33 5 1 0 2 0 0 0 0 0 0 0 35 75 95 42 14 13 87
0 0 0 0 0 0 0 0 0 0 0 0 0 0 5 5 60 37 3 5 5 5 1 7 66 41 14 6 0 4 0 0 0 0 0 0 0 0 6 16 14 6 10 39 17
0 0 0 0 0 0 0 0 0 0 0 0 0 0 0 2 2 5 5 4 5 5 0 5 100 80 98 30 0 0 0 0 0 0 0 0 0 0 0 0 3 18 39 4 5
0 0 0 0 0 0 0 0 0 0 0 0 0 17 0 0 0 0 4 2 3 5 3 5 5 8 85 64 29 7 0 0 0 0 0 0 0 0 0 7 30 44 41 8 17
0 0 0 0 0 0 0 0 0 0 0 0 0 0 0 0 0 0 0 0 0 3 4 5 5 5 10 49 14 5 0 0 0 0 0 0 0 0 0 71 100 100 48 46 54
0 0 0 0 0 0 0 0 0 0 0 0 2 0 0 0 4 0 0 0 0 0 1 0 5 4 4 5 5 5 0 9 0 0 0 0 14 0 2 68 69 89 77 58 39
0 0 0 0 0 0 0 0 0 0 0 0 0 0 0 0 0 4 0 0 0 0 0 0 2 5 0 2 17 1 71 4 0 0 0 0 5 0 0 54 100 100 100 60 48
0 0 0 0 0 0 0 0 0 0 0 0 0 0 0 0 0 0 1 0 0 0 0 0 2 3 0 4 93 100 33 0 2 1 0 0 0 0 0 0 30 77 78 24 44
0 0 0 0 0 0 0 0 0 0 0 0 0 0 0 0 0 0 0 0 0 0 0 0 0 0 0 0 68 59 99 92 5 0 0 0 0 0 0 0 0 0 35 31 33
0 0 0 0 0 0 0 0 0 0 0 0 0 0 0 0 0 0 0 0 0 0 0 0 0 0 0 0 0 4 5 8 5 0 0 3 0 0 0 0 0 0 0 4 41
0 0 0 0 0 0 0 0 0 0 0 0 0 0 0 0 0 0 0 0 0 1 0 0 0 0 0 0 0 0 2 5 5 3 0 4 0 0 0 0 0 0 0 0 0
0 0 0 0 0 0 0 0 0 0 0 0 0 0 0 0 0 0 0 0 0 0 0 0 0 0 0 0 0 0 0 5 5 1 76 5 27 0 0 0 0 0 0 0 0
0 0 0 0 0 0 0 0 0 0 0 0 0 0 0 0 0 0 0 0 0 0 0 0 0 0 0 0 0 0 1 5 5 5 16 4 1 5 0 0 0 0 0 0 0
0 0 0 26 0 0 0 0 0 0 0 0 0 0 0 0 0 0 0 0 0 0 0 0 0 0 0 0 0 0 0 0 5 5 30 5 3 5 2 0 0 0 0 0 0
0 0 0 0 0 0 0 0 0 0 0 0 0 0 0 0 0 0 0 0 0 0 0 0 0 0 0 0 0 0 2 36 80 77 24 10 1 33 1 0 0 0 0 0 0
0 0 0 0 0 0 0 0 0 0 0 0 0 0 0 0 0 0 0 0 0 0 0 0 0 0 0 0 0 0 4 65 100 100 100 5 0 0 0 0 0 0 0 0 0
3 0 0 0 0 0 0 0 0 0 0 0 0 0 0 0 0 0 0 0 0 0 0 0 0 0 0 0 0 0 0 16 100 100 100 19 0 0 0 0 0 0 0 0 0
0 0 0 0 0 0 0 0 0 0 0 0 0 0 0 0 0 0 0 0 0 0 0 0 0 0 0 0 0 0 0 8 66 100 100 100 5 5 0 0 0 0 0 0 0
0 0 0 4 5 5 0 0 0 0 0 0 0 0 0 0 0 0 0 0 0 0 0 0 0 0 0 0 0 0 0 2 33 97 100 100 7 4 0 0 0 0 0 0 0
3 2 3 4 0 5 3 3 0 0 0 0 0 0 0 0 0 0 0 0 0 0 0 0 0 0 0 0 0 0 0 2 20 93 98 100 100 0 0 0 0 0 0 0 0
68 0 35 98 99 42 23 1 1 0 0 0 0 0 0 0 0 0 0 0 0 0 0 0 0 0 0 0 0 0 0 3 5 36 3 11 86 3 4 0 0 0 0 0 0
86 35 21 75 90 36 24 5 5 5 4 5 2 0 0 0 0 0 0 0 0 0 0 0 0 0 0 0 0 0 0 2 5 4 19 0 22 5 71 0 0 0 5 1 0
100 77 3 92 98 100 45 44 5 36 15 50 5 4 4 3 0 0 0 0 0 0 0 0 0 0 0 0 0 0 0 0 3 1 9 4 0 61 100 2 0 0 5 1 0
98 91 70 5 100 100 53 94 66 79 91 97 96 100 100 12 4 0 0 0 0 0 0 0 0 0 0 0 0 0 0 0 1 0 5 4 21 0 34 5 0 0 0 0 0
69 98 12 50 15 17 96 100 74 86 70 73 67 48 5 14 31 4 0 0 0 0 0 0 0 0 0 0 0 0 0 0 0 0 0 0 3 100 94 10 2 0 0 0 0

GFSSW_prec_cloud_195.txt.gz
Cloud_Cover
0 0 0 0 0 0 0 0 0 0 4 5 13 72 5 12 5 5 5 4 4 2 5 6 5 5 5 1 0 2 66 97 83 75 100 32 55 100 99 100 99 94 90 85 47
0 0 0 0 0 0 0 0 0 0 0 2 5 5 5 58 5 5 3 0 5 5 5 3 10 5 5 4 0 0 100 95 30 92 27 26 72 72 31 21 72 97 67 71 50
0 0 0 0 0 0 0 0 0 0 0 0 3 5 5 83 31 25 5 1 5 5 5 5 5 26 5 12 21 14 100 13 59 12 64 23 6 33 99 83 52 34 45 34 18
0 0 0 0 0 0 0 0 0 0 0 0 0 0 5 34 100 5 5 0 5 5 5 5 78 28 88 100 1 99 5 43 6 4 10 83 21 46 71 81 35 37 6 5 5
0 0 0 0 0 0 0 0 0 0 0 0 0 0 0 4 24 3 5 3 4 5 5 2 80 80 95 99 2 73 5 16 5 5 4 2 4 7 8 2 25 56 83 41 5
0 0 0 0 0 0 0 0 0 0 0 0 0 35 0 0 2 0 4 5 0 5 5 0 4 31 97 22 62 38 6 18 5 3 0 6 0 0 0 0 1 4 31 24 6
0 0 0 0 0 0 0 0 0 0 0 0 0 2 0 0 0 0 0 3 5 0 5 5 0 56 27 44 6 82 5 5 5 3 8 4 19 0 0 0 0 1 52 71 99
0 0 0 0 0 0 0 0 0 0 0 0 2 0 0 0 0 0 0 0 0 0 1 5 0 5 5 15 18 91 97 60 96 3 3 33 100 0 0 0 0 0 53 100 100
0 0 0 0 0 0 0 0 0 0 0 12 0 0 0 0 0 0 0 0 0 0 0 0 0 18 5 20 87 95 99 94 100 98 14 8 100 0 0 0 0 1 13 99 100
0 0 0 0 0 0 0 0 0 9 12 0 0 0 0 0 0 0 0 0 0 0 0 0 0 5 0 60 21 91 60 81 100 84 4 37 23 0 0 0 0 0 0 46 100
0 0 0 0 0 0 0 0 0 0 0 0 0 0 0 0 0 0 0 0 0 0 0 0 0 0 0 5 79 100 100 68 27 5 0 63 88 6 0 0 0 0 4 5 39
0 0 0 0 0 0 7 0 0 0 0 0 0 0 0 0 0 0 0 0 0 0 0 0 0 1 4 5 72 100 87 71 98 12 0 19 94 8 0 0 0 0 0 0 8
0 0 0 0 0 0 0 0 0 0 0 0 0 0 0 0 0 0 0 0 0 0 0 0 2 0 5 0 5 80 100 96 57 69 34 2 3 3 2 0 0 0 0 0 0
0 0 0 0 0 0 0 0 0 0 0 0 0 0 0 0 0 0 0 0 0 0 0 0 0 0 4 0 5 41 13 16 36 92 100 40 82 100 5 0 0 0 0 0 0
0 0 0 0 0 0 0 0 0 0 0 0 0 0 0 0 0 0 0 0 0 0 0 0 0 0 0 0 1 5 10 99 6 100 100 25 74 76 9 0 0 0 0 0 0
0 0 0 0 0 0 0 0 0 0 0 0 0 0 0 0 0 0 0 0 0 0 0 0 0 0 0 0 0 2 19 99 78 100 100 96 96 100 8 0 0 0 0 0 0
0 0 0 0 0 0 0 0 0 0 0 0 0 0 0 0 0 0 0 0 0 0 0 0 0 0 0 0 0 2 64 100 100 99 77 98 92 100 84 76 2 0 0 0 0
0 0 0 0 0 0 0 0 0 0 0 0 0 0 0 0 0 0 0 0 0 0 0 0 0 0 0 0 0 0 79 100 99 100 100 20 43 98 100 73 0 1 0 0 0
12 0 0 0 0 0 0 0 0 0 0 0 0 0 0 0 0 0 0 0 0 0 0 0 0 0 0 0 0 0 5 68 90 54 100 90 78 4 15 0 0 0 0 0 0
0 0 0 0 0 0 0 0 0 0 0 0 0 0 0 0 0 0 0 0 0 0 0 0 0 0 0 0 0 0 16 4 8 96 9 97 72 1 2 5 4 0 0 0 0
0 0 1 0 0 0 0 17 18 0 0 0 0 0 0 0 0 0 0 0 0 0 0 0 0 0 0 0 0 0 4 5 69 90 99 100 100 100 50 4 0 0 0 0 0
10 17 4 0 1 23 60 97 5 15 0 0 0 0 0 0 0 0 0 2 0 0 0 0 0 0 0 0 0 0 0 4 28 6 100 80 46 100 1 0 0 0 0 0 0
84 5 18 0 83 100 100 19 5 21 4 0 0 0 0 0 0 0 28 23 0 0 0 0 0 0 0 0 0 0 0 1 5 47 79 100 38 100 33 0 0 0 0 0 0
28 93 100 43 14 53 97 100 100 68 5 5 5 1 0 0 1 0 0 0 0 0 0 0 0 0 0 0 0 0 0 0 4 27 57 100 60 100 98 0 0 0 0 0 0
100 100 42 94 100 97 96 100 100 100 62 5 8 5 4 5 4 0 0 0 0 0 0 0 0 0 0 0 0 0 0 0 0 30 51 10 98 100 90 0 0 0 0 0 0
100 90 68 48 7 5 100 100 100 100 100 100 86 98 0 44 86 10 2 3 9 25 0 0 0 0 0 0 0 0 0 0 0 60 38 69 84 100 100 0 0 0 0 0 0
100 99 83 98 100 100 100 100 90 100 100 100 88 98 19 15 100 100 100 100 8 4 0 0 0 0 0 0 0 0 0 0 0 98 91 42 37 6 85 86 0 0 0 0 0

GFSSW_prec_cloud_198.txt.gz
Cloud_Cover
0 0 0 0 0 0 0 0 0 0 5 5 55 7 26 5 0 0 0 4 2 2 2 2 4 1 0 0 4 94 100 83 100 100 90 100 3 59 50 100 100 100 100 100 96
0 0 0 0 0 0 0 0 0 0 1 5 5 5 54 5 5 1 0 5 0 0 4 5 0 5 0 0 9 99 100 91 48 51 64 100 85 1 63 100 100 99 44 68 54
0 0 0 0 0 0 0 0 0 0 0 0 2 5 5 5 6 20 0 1 0 0 4 1 5 5 3 28 47 100 86 100 58 74 100 9 10 24 34 89 76 58 38 55 5
0 0 0 0 0 0 0 0 0 0 0 0 0 0 5 5 48 5 0 0 0 0 1 5 5 5 19 100 72 9 4 87 8 3 94 56 75 5 100 100 14 5 36 5 5
0 0 0 0 0 0 0 0 0 0 0 0 0 0 0 3 7 3 2 0 0 5 0 5 5 24 82 63 54 69 94 2 1 81 6 2 46 4 3 62 6 7 20 11 5
0 0 0 0 0 0 0 0 0 0 0 0 0 24 0 0 0 0 5 4 0 0 0 1 4 4 5 94 28 92 28 72 66 0 0 55 0 20 0 0 1 4 28 10 5
0 0 0 0 0 0 0 0 0 0 0 0 0 0 0 0 0 0 0 0 4 0 0 4 0 0 0 10 14 51 20 5 71 3 61 100 18 100 0 0 0 3 20 10 3
0 0 0 0 0 0 0 0 0 0 0 0 2 0 0 0 0 0 0 0 0 0 0 4 0 0 5 0 5 100 77 98 19 13 44 0 85 100 24 0 0 0 8 36 0
0 0 0 0 0 0 0 0 0 0 0 1 0 0 0 0 0 0 0 0 0 0 0 0 0 0 5 2 14 99 98 26 84 100 36 17 46 97 96 16 0 0 3 100 79
0 0 0 0 0 0 0 0 0 0 0 0 0 0 0 0 0 0 0 0 0 0 0 0 0 0 3 1 87 91 97 95 82 100 51 32 2 5 79 15 3 0 12 56 85
0 0 0 0 0 0 0 0 0 0 0 0 0 0 0 0 0 0 0 0 0 0 0 0 0 0 4 4 35 18 82 100 99 70 60 36 11 0 50 21 0 0 0 1 8
0 0 0 0 0 0 0 0 0 0 0 0 0 0 0 0 0 0 0 0 0 0 0 0 0 0 5 0 80 64 100 100 100 100 100 10 65 0 1 0 0 0 0 0 0
0 0 0 0 0 0 0 0 0 0 0 0 0 0 0 0 0 0 0 0 0 0 0 0 0 0 0 3 13 97 100 97 82 100 94 16 1 94 2 0 0 0 0 0 0
0 0 0 0 0 0 0 0 0 0 0 0 0 0 0 0 0 0 0 0 0 0 0 0 0 0 0 4 1 88 98 71 100 84 64 70 85 100 25 0 0 0 0 0 0
0 0 0 0 0 0 0 0 0 0 0 0 0 0 0 0 0 0 0 0 0 0 0 0 0 0 0 1 1 0 11 93 47 49 6 9 8 82 35 0 0 0 0 0 0
0 0 0 0 0 0 0 0 0 0 0 0 0 0 0 0 0 0 0 0 0 0 0 0 0 0 0 0 0 0 5 98 62 80 20 1 28 75 90 48 4 0 0 0 0
0 0 0 0 0 0 0 0 0 0 0 0 0 0 0 0 0 0 0 0 0 0 0 0 0 0 0 0 0 0 0 8 40 55 5 0 54 96 100 100 100 19 0 0 0
0 0 0 0 0 0 0 0 0 0 0 0 0 0 0 0 0 0 0 0 0 0 0 0 0 0 0 0 0 0 0 8 6 86 3 80 91 97 77 100 100 100 0 0 0
7 0 0 0 0 0 0 0 0 0 0 1 0 0 0 0 0 0 0 0 0 0 0 0 0 0 0 0 0 0 0 1 48 97 100 58 85 42 100 100 100 64 0 0 0
0 0 0 0 0 0 0 0 0 0 0 0 0 0 0 0 0 0 0 0 0 0 0 0 0 0 0 3 0 0 0 0 9 4 86 4 100 40 84 89 12 22 0 0 0
0 0 0 0 0 0 0 0 0 2 28 0 0 0 0 0 0 0 0 0 3 0 0 0 0 0 0 0 0 0 0 0 1 2 74 98 100 100 99 9 26 41 0 0 0
0 2 5 23 30 4 0 2 5 52 5 0 0 0 0 0 0 0 3 52 0 0 0 0 0 0 0 0 0 0 0 0 0 1 6 100 100 100 13 40 100 0 0 0 0
8 29 53 95 5 65 93 40 77 46 5 33 2 2 0 0 0 0 1 55 2 0 0 0 0 0 0 0 0 0 0 0 0 8 0 65 100 100 100 100 84 1 0 0 0
100 74 97 93 18 18 86 30 100 88 7 7 48 76 0 0 0 0 6 91 3 0 0 0 0 0 0 0 0 0 0 0 0 4 1 91 100 66 96 100 100 0 0 0 0
66 65 100 100 100 66 99 99 100 100 100 36 5 100 37 16 4 1 0 1 1 2 0 0 0 0 0 0 0 1 0 0 0 0 1 99 100 5 100 100 100 0 0 0 0
92 72 100 100 100 99 65 5 100 100 100 87 96 100 100 65 93 94 1 2 0 47 0 0 0 0 0 0 0 5 0 0 0 0 0 36 88 5 17 100 85 33 0 0 0
89 100 100 100 100 100 100 100 100 100 99 100 91 95 69 87 90 12 5 0 0 2 0 0 0 0 0 0 0 0 4 0 0 0 0 8 86 98 71 100 76 2 0 0 0